[[{"header":{"parameterUnit":"m.s-1","parameterCategory":1,"la1":30.2991,"la2":30.254,"lo1":-89.0895,"lo2":-89.0444,"dy":0.0017,"dx":0.0017,"nx":28,"ny":28,"refTime":"2024-06-23T09:00:00:Z","depth":0,"parameterNumber":2,"parameterNumberName":"U-component_of_WINDS"},"data":[0,0,0,0,0,0,0,0,0,0,0,0,0,0,0,0,0,0,0,0,0,0,0,0,0,0,0,0,0,0,0,0,0,0,0,0,0,0,0,0,0,0,0,0,0,0,0,0,0,0,0,0,0,0,0,0,0,0,2.6116,2.6117,0,2.6153,2.6154,2.6154,2.6124,2.6123,2.6121,2.612,2.6158,2.616,2.6163,0,0,0,0,0,0,0,0,0,0,0,0,0,2.6018,2.602,2.6116,2.6117,2.6117,2.6153,2.6154,2.6154,2.6124,2.6123,2.6121,2.612,2.6158,2.616,2.6163,0,0,0,0,0,0,0,0,0,0,0,0,0,2.6059,2.6021,2.6116,2.6107,2.6106,2.6153,2.6154,2.6154,2.6125,2.6123,2.6121,2.6119,2.6157,2.616,2.6163,2.6222,0,0,2.6173,2.6175,0,0,0,0,0,0,0,0,2.6056,2.6062,2.6108,2.6107,2.6107,2.6132,2.6133,2.6177,2.6125,2.6118,2.612,2.6118,2.6151,2.6155,2.6166,2.6223,2.6225,2.6173,2.6175,2.6177,2.6178,0,0,0,0,0,0,0,2.6054,2.606,2.6131,2.6108,2.6108,2.61,2.6104,2.6141,2.6145,2.6118,2.6116,2.6121,2.6151,2.6163,2.6167,2.6226,2.6173,2.6176,2.6178,2.618,2.633,2.6332,0,0,0,0,0,0,2.6052,2.6058,2.613,2.6132,2.6076,2.6103,2.6107,2.6126,2.6144,2.6145,2.6122,2.6119,2.6158,2.6163,2.6168,2.6235,2.6177,2.618,2.6182,2.6328,2.633,2.6333,0,0,0,0,0,0,2.605,2.6058,2.6128,2.6095,2.6103,2.6107,2.6128,2.6128,2.614,2.6147,2.6148,2.6134,2.6157,2.6163,2.6208,2.6236,2.6181,2.6184,2.6326,2.6329,2.6331,2.6372,0,0,0,0,0,0,2.6047,2.6058,2.6081,2.6095,2.6105,2.6168,2.613,2.613,2.6146,2.6142,2.6159,2.616,2.6156,2.6203,2.6211,2.624,2.6187,2.6323,2.6327,2.633,2.6368,2.6376,2.6383,0,0,0,0,0,2.6044,2.6091,2.6082,2.6091,2.6133,2.617,2.6175,2.617,2.6148,2.617,2.6175,2.6159,2.6232,2.6208,2.6217,2.6247,2.6321,2.6326,2.633,2.6365,2.6375,2.6383,0,0,0,0,0,0,2.6081,2.6093,2.6083,2.6137,2.6153,2.6165,2.6193,2.6181,2.6203,2.6199,2.6191,2.6195,2.6241,2.6249,2.6222,2.6303,2.6273,2.6279,2.6296,2.6306,2.6313,2.6309,2.619,0,0,0,0,0,2.6095,2.6124,2.6133,2.618,2.6188,2.6189,2.6205,2.6199,2.6215,2.6222,2.623,2.6246,2.6272,2.6289,2.6314,2.6369,2.6371,2.6394,2.6402,2.6407,2.6413,2.644,2.6449,2.6347,2.6347,2.6347,0,0,2.6125,2.6136,2.6155,2.6188,2.6199,2.6228,2.6195,2.6228,2.6249,2.6227,2.6269,2.6275,2.6292,2.6342,2.6364,2.6349,2.6441,2.6413,2.6418,2.642,2.6446,2.6455,2.6464,2.635,2.635,2.6349,0,0,2.6195,2.6207,2.6245,2.6257,2.6274,2.6274,2.6283,2.6297,2.63,2.6342,2.6325,2.635,2.6396,2.6408,2.642,2.6492,2.6477,2.65,2.6538,2.6565,2.6573,2.658,2.6603,2.6612,2.6506,2.6506,2.6506,0,2.623,2.6274,2.6267,2.63,2.6314,2.6295,2.6333,2.6345,2.6369,2.6379,2.6362,2.6418,2.6428,2.6479,2.6496,2.6507,2.6516,2.6498,2.6572,2.6579,2.6586,2.6608,2.6617,2.6508,2.6508,2.6508,2.6508,0,2.6315,2.6345,2.6374,2.6397,2.6415,2.6451,2.6448,2.6467,2.6459,2.6461,2.6502,2.6514,2.6539,2.6551,2.6545,2.66,2.659,2.6573,2.6543,2.6598,2.6618,2.6627,2.6512,2.6511,2.651,2.651,0,0,2.6409,2.6426,2.6437,2.6446,2.6463,2.6486,2.652,2.6544,2.6559,2.6577,2.6604,2.6642,2.6625,2.6639,2.6634,2.6657,2.671,2.6637,2.6637,2.6648,2.6769,2.6781,2.6791,2.6701,2.6703,2.6704,2.6767,0,2.6477,2.6536,2.653,2.6586,2.6612,2.6593,2.6623,2.6636,2.6638,2.666,2.6662,2.6688,2.6666,2.6673,2.6696,2.6699,2.6734,2.6695,2.6725,2.6726,2.6719,2.6802,2.6815,2.6874,2.6775,2.6777,2.6778,0,2.6565,2.6584,2.6642,2.6652,2.6663,2.669,2.671,2.6732,2.6746,2.6746,2.676,2.675,2.6783,2.6752,2.6797,2.677,2.6782,2.6785,2.6787,2.6788,2.6754,2.6804,2.6893,2.6901,2.6791,2.679,2.6789,0,2.6625,2.6665,2.6704,2.6713,2.6727,2.6745,2.6752,2.6764,2.6778,2.6796,2.6805,2.6827,2.6838,2.6855,2.685,2.6829,2.6895,2.6865,2.6894,2.6894,2.6908,2.6907,2.6998,2.6919,2.6919,2.6918,2.6918,0,2.6701,2.6736,2.6731,2.6755,2.6794,2.6786,2.6825,2.6829,2.6839,2.6863,2.6848,2.6871,2.6864,2.6886,2.6883,2.6919,2.6925,2.6924,2.6922,2.6924,2.6924,2.6931,2.6926,2.6921,2.692,2.692,2.6919,0,2.6774,2.6772,2.6813,2.6822,2.6825,2.6853,2.686,2.6882,2.6882,2.6912,2.6919,2.6919,2.6944,2.6941,2.697,2.6967,2.7011,2.7006,2.7006,2.7004,2.7033,2.7029,2.7131,2.7143,2.7057,2.7058,2.7059,0,2.6821,2.6848,2.6859,2.6874,2.6881,2.6905,2.6919,2.6912,2.6927,2.6943,2.6963,2.6986,2.7004,2.7045,2.7047,2.7068,2.7062,2.7096,2.7065,2.7065,2.7059,2.7057,2.7059,2.7101,2.7102,2.7103,2.7104,0,2.6905,2.6902,2.6923,2.6942,2.6959,2.6975,2.6989,2.7001,2.6995,2.7013,2.7037,2.7051,2.7079,2.7102,2.7121,2.7127,2.7114,2.7114,2.7121,2.7122,2.7121,2.712,2.7021,2.7111,2.711,2.711,2.7109,2.7109,2.6965,2.6987,2.6998,2.702,2.703,2.7043,2.7063,2.7065,2.7085,2.7107,2.7102,2.7129,2.714,2.7164,2.7172,2.7193,2.718,2.7192,2.7194,2.7197,2.7199,2.7119,2.7197,2.7197,2.7196,2.7196,2.7196,0,2.7046,2.7052,2.7073,2.7092,2.7109,2.7095,2.7109,2.7124,2.7149,2.716,2.7177,2.7205,2.7226,2.723,2.725,2.7265,2.726,2.7271,2.7269,2.727,2.721,2.7201,2.7275,2.7275,2.7275,2.7275,2.7275,2.7275,2.709,2.7125,2.7124,2.7163,2.7168,2.7194,2.7203,2.7214,2.7223,2.7254,2.7271,2.7273,2.7281,2.7301,2.732,2.732,2.7327,2.734,2.7338,2.7282,2.7274,2.7267,2.7258,2.7342,2.7342,2.7395,2.7396,2.7396]},{"header":{"parameterUnit":"m.s-1","parameterCategory":1,"la1":30.2991,"la2":30.254,"lo1":-89.0895,"lo2":-89.0444,"dy":0.0017,"dx":0.0017,"nx":28,"ny":28,"refTime":"2024-06-23T09:00:00:Z","depth":0,"parameterNumber":3,"parameterNumberName":"V-component_of_WINDS"},"data":[0,0,0,0,0,0,0,0,0,0,0,0,0,0,0,0,0,0,0,0,0,0,0,0,0,0,0,0,0,0,0,0,0,0,0,0,0,0,0,0,0,0,0,0,0,0,0,0,0,0,0,0,0,0,0,0,0,0,2.5591,2.5592,0,2.5758,2.576,2.5761,2.5815,2.5814,2.5813,2.5813,2.5979,2.5984,2.599,0,0,0,0,0,0,0,0,0,0,0,0,0,2.5312,2.5317,2.559,2.5592,2.5595,2.5757,2.576,2.5762,2.5815,2.5814,2.5813,2.5812,2.5978,2.5984,2.599,0,0,0,0,0,0,0,0,0,0,0,0,0,2.5452,2.5319,2.559,2.5641,2.5647,2.5757,2.576,2.5763,2.5815,2.5814,2.5813,2.5812,2.5976,2.5983,2.5991,2.6061,0,0,2.6015,2.6018,0,0,0,0,0,0,0,0,2.5444,2.5462,2.5631,2.5637,2.5645,2.5764,2.5723,2.5863,2.5815,2.5751,2.5812,2.5811,2.5909,2.5922,2.5955,2.6069,2.6076,2.6015,2.602,2.6023,2.6025,0,0,0,0,0,0,0,2.5434,2.5455,2.5656,2.5633,2.5642,2.5654,2.5672,2.575,2.5834,2.5757,2.5761,2.578,2.5912,2.5948,2.596,2.6079,2.6015,2.6022,2.6027,2.603,2.6258,2.6259,0,0,0,0,0,0,2.5416,2.5446,2.5651,2.5661,2.5539,2.566,2.568,2.5727,2.5833,2.5849,2.5781,2.5782,2.5935,2.5951,2.5966,2.6055,2.6023,2.603,2.6035,2.6256,2.6258,2.6259,0,0,0,0,0,0,2.541,2.5434,2.5644,2.5555,2.5583,2.5666,2.5717,2.5731,2.5767,2.5852,2.5867,2.5803,2.5935,2.5955,2.6037,2.6062,2.6034,2.6041,2.6255,2.6257,2.6259,2.6234,0,0,0,0,0,0,2.5402,2.5432,2.546,2.5556,2.5588,2.5715,2.5719,2.5735,2.5781,2.5784,2.5876,2.589,2.5936,2.6026,2.6045,2.6072,2.6047,2.6253,2.6255,2.6258,2.6233,2.6235,2.6237,0,0,0,0,0,2.5392,2.5446,2.5462,2.5486,2.5625,2.5716,2.5734,2.5787,2.5782,2.5811,2.5866,2.5887,2.6056,2.6034,2.6056,2.6085,2.6251,2.6255,2.6258,2.6232,2.6235,2.6237,0,0,0,0,0,0,2.535,2.5459,2.5478,2.5565,2.5631,2.5725,2.5763,2.5787,2.5855,2.5855,2.5916,2.5936,2.6014,2.6058,2.6031,2.6159,2.6154,2.6162,2.6127,2.613,2.6132,2.612,2.6053,0,0,0,0,0,2.5352,2.5417,2.5508,2.5576,2.5609,2.568,2.5721,2.5756,2.5826,2.5854,2.5914,2.598,2.6048,2.6092,2.6159,2.6239,2.626,2.6271,2.6272,2.6273,2.628,2.6325,2.633,2.627,2.627,2.627,0,0,2.5354,2.5422,2.546,2.557,2.5625,2.569,2.5703,2.5772,2.582,2.5864,2.5946,2.5992,2.607,2.6151,2.619,2.6191,2.6301,2.6278,2.6278,2.6284,2.6329,2.6334,2.6339,2.6272,2.6272,2.6271,0,0,2.5393,2.5451,2.5514,2.5569,2.5653,2.57,2.5715,2.5805,2.5838,2.5921,2.5955,2.6013,2.6128,2.6182,2.6225,2.6282,2.6304,2.6302,2.6312,2.6355,2.636,2.6365,2.6385,2.6392,2.6308,2.6308,2.6308,0,2.5386,2.5487,2.5543,2.561,2.5657,2.57,2.5763,2.5814,2.5914,2.5945,2.5944,2.609,2.6145,2.6239,2.6253,2.6286,2.6304,2.6292,2.6355,2.636,2.6365,2.6385,2.6393,2.6307,2.6307,2.6307,2.6307,0,2.5474,2.5543,2.5583,2.5681,2.5732,2.5797,2.5861,2.5906,2.5935,2.5982,2.6065,2.6133,2.6214,2.6239,2.6268,2.6337,2.6335,2.6344,2.6341,2.6369,2.6389,2.6397,2.6306,2.6306,2.6306,2.6307,0,0,2.5492,2.5619,2.5633,2.5678,2.5772,2.5827,2.5892,2.5973,2.601,2.6077,2.6133,2.623,2.6238,2.6286,2.6322,2.636,2.64,2.6364,2.6367,2.6368,2.648,2.6473,2.6481,2.6415,2.6417,2.6418,2.6474,0,2.5543,2.5665,2.5716,2.5813,2.5877,2.5918,2.5975,2.6039,2.6083,2.6143,2.6192,2.6259,2.6266,2.6295,2.6334,2.6387,2.6424,2.6384,2.6467,2.6469,2.6447,2.6492,2.6485,2.6534,2.6482,2.6483,2.6484,0,2.5619,2.5688,2.5792,2.5879,2.5907,2.5958,2.6036,2.6093,2.6165,2.6194,2.6248,2.6281,2.635,2.6342,2.6437,2.6408,2.6445,2.6476,2.6479,2.6489,2.6479,2.6503,2.6551,2.6558,2.6497,2.6496,2.6495,0,2.5622,2.5741,2.5818,2.5855,2.5958,2.5992,2.6036,2.6108,2.6152,2.622,2.6249,2.6323,2.6363,2.6418,2.647,2.6459,2.656,2.6556,2.6585,2.6584,2.6605,2.6603,2.666,2.6628,2.6628,2.6628,2.6628,0,2.5674,2.5736,2.5821,2.5868,2.5938,2.5995,2.6062,2.6109,2.6172,2.6228,2.6267,2.6319,2.6384,2.6443,2.6484,2.6556,2.6574,2.6599,2.6609,2.6596,2.6592,2.6621,2.6619,2.663,2.663,2.6629,2.6629,0,2.5689,2.5749,2.5836,2.5926,2.595,2.5998,2.6074,2.6121,2.6167,2.6238,2.6257,2.6329,2.6401,2.6458,2.6551,2.6578,2.6654,2.6665,2.663,2.6636,2.6662,2.6659,2.6739,2.6752,2.6711,2.6711,2.6712,0,2.5719,2.5767,2.5863,2.5904,2.5948,2.6014,2.606,2.6117,2.6164,2.6249,2.6285,2.636,2.6423,2.6535,2.6595,2.6666,2.6679,2.6702,2.669,2.6675,2.6679,2.6676,2.6681,2.6704,2.6704,2.6704,2.6704,0,2.5764,2.5791,2.5857,2.5933,2.5988,2.605,2.6113,2.6144,2.6212,2.6262,2.6337,2.6385,2.6481,2.6554,2.6632,2.6675,2.6701,2.6707,2.6718,2.6705,2.6683,2.6695,2.6634,2.6705,2.6705,2.6705,2.6705,2.6705,2.5788,2.5833,2.5907,2.5979,2.6032,2.609,2.6138,2.6191,2.6254,2.6338,2.6367,2.6443,2.6513,2.662,2.6664,2.6723,2.6725,2.674,2.6744,2.6747,2.6746,2.6673,2.6737,2.6737,2.6737,2.6737,2.6737,0,2.5836,2.5885,2.5951,2.6038,2.6094,2.6114,2.6184,2.623,2.6297,2.636,2.6421,2.6506,2.6577,2.6642,2.6716,2.6751,2.6764,2.6768,2.6766,2.6776,2.674,2.6723,2.6756,2.6756,2.6756,2.6756,2.6756,2.6756,2.5867,2.5944,2.5979,2.6082,2.6131,2.6208,2.6246,2.6299,2.635,2.6443,2.6503,2.6545,2.6609,2.6687,2.6753,2.677,2.6795,2.6796,2.6816,2.6781,2.6779,2.6776,2.6761,2.6801,2.6801,2.6847,2.6848,2.6848]}]]